星链-3637 (STARLINK-3637 )

导读

STARLINK-3637是美国太空探索技术公司(SpaceX)于2022年2月25日发射的星链(Starlink)卫星,属于星链卫星互联网星座的组成部分。星链项目旨在通过在低地球轨道部署数千颗小型卫星,为全球尤其是基础设施匮乏地区提供高速低延迟的宽带互联网服务,STARLINK-3637承担着覆盖增强与网络扩容的功能。

Basic Information
目录编号:
51799
目录名称:
STARLINK-3637
国际标识:
2022-017AH
轨道中心:
EARTH
卫星名称:
星链-3637
卫星全名:
星链-3637 (STARLINK-3637 )
卫星状态:
在轨 (已飞行1660 天)
发射日期:
2022-02-25 UTC
国别 :
美国 (US)
星等 :
--
This satellite is enrolled in the Space Conjunction Data Service (SCDS) and the current flight risk assessment level is: No High Risk
Orbit Information
数据来源 国际轨道数据 AOE轨道数据
星历时间 2026-09-12T10:59:52+0800
6小时前
查看轨道信息
2026-09-09T22:00:00+0800
2天前
查看轨道信息
半长轴 6840.838km 6840.892km
偏心率 0.0001175 0.0003658
轨道倾角 53.159° 53.156°
近地点辐角 90.609° 132.490°
升交点赤经 217.215° 229.093°
平近点角 269.504° 220.620°
近地点 461.897km 460.252km
远地点 463.505km 465.258km
周期 93.848分钟 93.849分钟
每日圈数 15.344008 15.343826
Detailed Information
固有亮度:
5
最大亮度:
2.5
卫星平台:
Starlink v1.5
覆盖范围:
全球
运营商:
太空探索技术公司
运营商所在国:
美国
制造商(研发单位):
太空探索技术公司
制造商所在国:
美国
使用方式:
暂无
Satellite Introduction
星链(Starlink)计划是由太空探索技术公司(SpaceX)提出的一个巨型低轨卫星互联网星座项目,计划在2019年至2024年间在太空搭建由约1.2万颗卫星组成的“星链”网络,其中1584颗将部署在地球上空550千米处的近地轨道,并从2020年开始工作。该卫星仍在工作。
2D Orbit Map
3D Orbit Map
Orbit Altitude Analysis Chart
Orbit Inclination Analysis Chart
Orbit Comprehensive Analysis Chart
View Comprehensive Chart
Miss Distance Evolution Trend with All Objects
Collision Probability Evolution Trend with All Objects